Regional Weather Roundup
Issued by NWS

Home | Current Version | Previous Version | Text Only | Print | Product List | Glossary On
Versions: 1 2 3 4 5 6 7 8 9 10 11 12 13 14 15 16 17 18 19 20 21 22 23 24 25 26 27 28 29 30 31 32 33 34 35 36 37 38 39 40 41 42 43 44 45 46 47 48 49 50
000
ASUS43 KFSD 291002
RWRSD

WEATHER ROUNDUP FOR SOUTH DAKOTA
NATIONAL WEATHER SERVICE SIOUX FALLS SD
500 AM CDT TUE JUL 29 2014

NOTE: "FAIR" INDICATES FEW OR NO CLOUDS BELOW 12,000 FEET WITH NO
SIGNIFICANT WEATHER AND/OR OBSTRUCTIONS TO VISIBILITY.


SDZ001>005-009-010-012>017-291100-
NORTHWEST AND NORTH CENTRAL SOUTH DAKOTA

CITY           SKY/WX    TMP DP  RH WIND       PRES   REMARKS
BUFFALO          N/A     57  51  80 SE5       30.19S
FAITH            N/A     54  50  86 S9        30.23F
MOBRIDGE       CLEAR     54  52  93 SE5       30.20F
$$

SDZ012>016-024>037-041>051-057-063-072>074-291100-
SOUTHWEST AND SOUTH CENTRAL SOUTH DAKOTA

CITY           SKY/WX    TMP DP  RH WIND       PRES   REMARKS
RAPID CTY ARPT CLEAR     55  49  80 CALM      30.26S
PIERRE         CLEAR     51  50  96 E3        30.21S
CUSTER         PTCLDY    55  46  71 CALM      30.34F
ELLSWORTH AFB  CLEAR     56  50  81 W6        30.26S
PHILIP         CLEAR     53  48  83 N3        30.22S
PINE RIDGE     PTCLDY    63  53  70 E7        30.23S
WINNER         FAIR      56  49  77 SE5       30.22F
$$

SDZ004>011-016>023-039-040-291100-
NORTHEAST SOUTH DAKOTA

CITY           SKY/WX    TMP DP  RH WIND       PRES   REMARKS
ABERDEEN       CLEAR     46  45  96 CALM      30.22S FOG
WATERTOWN      CLEAR     51  49  92 CALM      30.22R
SISSETON         N/A     50  50 100 CALM      30.19S
$$

SDZ017-020-022-023-036>040-048>070-291100-
SOUTHEAST SOUTH DAKOTA

CITY           SKY/WX    TMP DP  RH WIND       PRES   REMARKS
SIOUX FALLS    CLEAR     51  50  96 CALM      30.21S
HURON          MOCLDY    50  48  93 CALM      30.21S
CHAMBERLAIN    CLEAR     48  46  90 CALM      30.22S
MITCHELL       PTCLDY    52  50  93 W3        30.22S
YANKTON        CLEAR     54  50  87 NW6       30.21R
$$

ABBREVIATIONS USED IN REMARKS
   TC - TEMPERATURE IN CELSIUS
  WCI - WIND CHILL INDEX
   HX - HEAT INDEX
  VSB - VISIBILITY




USA.gov is the U.S. government's official web portal to all federal, state and local government web resources and services.